• In Uzbekistan
  • List of Countries
  • For 7 days
  • Water Temperature
  • Satellite Maps
  • Weather Map
  • Weather Widgets
  • user-avatar
    Login

    Hourly Weather Neuquén

    Today, 14 December, Thursday

    Time Temperature Precipitation Wind Pressure Humidity
    00:00 +22°C° 0 mm 10 mps 733 mmHg 39%
    01:00 +21°C° 0 mm 9 mps 733 mmHg 42%
    02:00 +21°C° 0 mm 9 mps 733 mmHg 43%
    03:00 +21°C° 0 mm 8 mps 734 mmHg 43%
    04:00 +20°C° 0 mm 7 mps 734 mmHg 44%
    05:00 +22°C° 0 mm 8 mps 734 mmHg 41%
    06:00 +23°C° 0 mm 8 mps 734 mmHg 37%
    07:00 +24°C° 0 mm 8 mps 734 mmHg 34%
    08:00 +27°C° 0 mm 8 mps 733 mmHg 31%
    09:00 +28°C° 0 mm 8 mps 733 mmHg 27%
    10:00 +31°C° 0 mm 9 mps 733 mmHg 24%
    11:00 +32°C° 0 mm 9 mps 732 mmHg 22%
    12:00 +33°C° 0 mm 10 mps 732 mmHg 21%
    13:00 +34°C° 0 mm 10 mps 731 mmHg 20%
    14:00 +33°C° 0 mm 11 mps 731 mmHg 21%
    15:00 +33°C° 0 mm 11 mps 731 mmHg 21%
    16:00 +33°C° 0 mm 12 mps 731 mmHg 22%
    17:00 +31°C° 0 mm 11 mps 731 mmHg 25%
    18:00 +29°C° 0 mm 11 mps 731 mmHg 28%
    19:00 +27°C° 0 mm 11 mps 731 mmHg 30%
    20:00 +26°C° 0 mm 11 mps 732 mmHg 32%
    21:00 +24°C° 0 mm 10 mps 732 mmHg 35%
    22:00 +23°C° 0 mm 10 mps 733 mmHg 37%
    23:00 +23°C° 0 mm 9 mps 732 mmHg 37%

    Tomorrow, 15 December, Friday

    Time Temperature Precipitation Wind Pressure Humidity
    00:00 +22°C° 0 mm 9 mps 732 mmHg 37%
    01:00 +21°C° 0 mm 8 mps 732 mmHg 38%
    02:00 +21°C° 0 mm 8 mps 732 mmHg 37%
    03:00 +20°C° 0 mm 7 mps 731 mmHg 36%
    04:00 +20°C° 0 mm 7 mps 731 mmHg 35%
    05:00 +21°C° 0 mm 7 mps 731 mmHg 32%
    06:00 +22°C° 0 mm 8 mps 731 mmHg 29%
    07:00 +24°C° 0 mm 9 mps 731 mmHg 26%
    08:00 +26°C° 0 mm 9 mps 731 mmHg 24%
    09:00 +28°C° 0 mm 8 mps 730 mmHg 22%
    10:00 +31°C° 0 mm 8 mps 730 mmHg 20%
    11:00 +32°C° 0 mm 8 mps 729 mmHg 18%
    12:00 +33°C° 0 mm 8 mps 728 mmHg 16%
    13:00 +35°C° 0 mm 8 mps 728 mmHg 14%
    14:00 +35°C° 0 mm 8 mps 727 mmHg 14%
    15:00 +37°C° 0 mm 9 mps 726 mmHg 13%
    16:00 +37°C° 0 mm 10 mps 726 mmHg 13%
    17:00 +34°C° 0 mm 10 mps 726 mmHg 16%
    18:00 +32°C° 0 mm 9 mps 725 mmHg 20%
    19:00 +31°C° 0 mm 9 mps 725 mmHg 23%
    20:00 +29°C° 0 mm 8 mps 726 mmHg 25%
    21:00 +28°C° 0 mm 7 mps 726 mmHg 27%
    22:00 +27°C° 0 mm 6 mps 726 mmHg 29%
    23:00 +26°C° 0 mm 7 mps 726 mmHg 30%

    Day after tomorrow, 16 December, Saturday

    Time Temperature Precipitation Wind Pressure Humidity
    00:00 +24°C° 0 mm 7 mps 725 mmHg 32%
    01:00 +23°C° 0 mm 7 mps 725 mmHg 33%
    02:00 +23°C° 0 mm 7 mps 725 mmHg 34%
    03:00 +22°C° 0 mm 8 mps 725 mmHg 34%
    04:00 +21°C° 0 mm 8 mps 724 mmHg 34%
    05:00 +22°C° 0 mm 10 mps 724 mmHg 31%
    06:00 +23°C° 0 mm 12 mps 724 mmHg 28%
    07:00 +26°C° 0 mm 14 mps 724 mmHg 25%
    08:00 +27°C° 0 mm 15 mps 724 mmHg 23%
    09:00 +29°C° 0 mm 17 mps 724 mmHg 22%
    10:00 +32°C° 0 mm 18 mps 723 mmHg 20%
    11:00 +28°C° 0 mm 18 mps 724 mmHg 21%
    12:00 +25°C° 0 mm 18 mps 725 mmHg 23%
    13:00 +23°C° 0 mm 19 mps 726 mmHg 24%
    14:00 +23°C° 0 mm 18 mps 726 mmHg 22%
    15:00 +22°C° 0 mm 18 mps 727 mmHg 20%
    16:00 +22°C° 0 mm 18 mps 728 mmHg 18%
    17:00 +20°C° 0 mm 17 mps 729 mmHg 20%
    18:00 +18°C° 0 mm 16 mps 730 mmHg 21%
    19:00 +17°C° 0 mm 14 mps 732 mmHg 22%
    20:00 +15°C° 0 mm 13 mps 733 mmHg 24%
    21:00 +15°C° 0 mm 12 mps 734 mmHg 25%
    22:00 +14°C° 0 mm 11 mps 735 mmHg 26%
    23:00 +13°C° 0 mm 10 mps 735 mmHg 27%

    17 December, Sunday

    Time Temperature Precipitation Wind Pressure Humidity
    00:00 +13°C° 0 mm 9 mps 736 mmHg 28%
    01:00 +12°C° 0 mm 8 mps 736 mmHg 29%
    02:00 +11°C° 0 mm 6 mps 737 mmHg 30%
    03:00 +12°C° 0 mm 5 mps 737 mmHg 30%
    04:00 +12°C° 0 mm 4 mps 737 mmHg 30%
    05:00 +13°C° 0 mm 3 mps 738 mmHg 28%
    06:00 +14°C° 0 mm 3 mps 739 mmHg 25%
    07:00 +16°C° 0 mm 3 mps 740 mmHg 22%
    08:00 +17°C° 0 mm 3 mps 739 mmHg 20%
    09:00 +18°C° 0 mm 3 mps 739 mmHg 18%
    10:00 +19°C° 0 mm 3 mps 739 mmHg 15%
    11:00 +21°C° 0 mm 3 mps 738 mmHg 14%
    12:00 +22°C° 0 mm 4 mps 737 mmHg 12%
    13:00 +23°C° 0 mm 4 mps 737 mmHg 11%
    14:00 +25°C° 0 mm 5 mps 736 mmHg 10%
    15:00 +26°C° 0 mm 5 mps 735 mmHg 9%
    16:00 +27°C° 0 mm 5 mps 735 mmHg 9%
    17:00 +26°C° 0 mm 5 mps 734 mmHg 9%
    18:00 +26°C° 0 mm 5 mps 734 mmHg 10%
    19:00 +26°C° 0 mm 5 mps 734 mmHg 10%
    20:00 +25°C° 0 mm 5 mps 734 mmHg 11%
    21:00 +24°C° 0 mm 6 mps 734 mmHg 12%
    22:00 +23°C° 0 mm 6 mps 734 mmHg 13%
    23:00 +23°C° 0 mm 6 mps 733 mmHg 14%

    18 December, Monday

    Time Temperature Precipitation Wind Pressure Humidity
    00:00 +23°C° 0 mm 5 mps 733 mmHg 16%
    01:00 +22°C° 0 mm 5 mps 732 mmHg 17%
    02:00 +22°C° 0 mm 5 mps 732 mmHg 20%
    03:00 +21°C° 0 mm 6 mps 731 mmHg 22%
    04:00 +20°C° 0 mm 6 mps 731 mmHg 25%
    05:00 +21°C° 0 mm 6 mps 731 mmHg 24%
    06:00 +23°C° 0 mm 7 mps 732 mmHg 23%
    07:00 +24°C° 0 mm 7 mps 732 mmHg 22%
    08:00 +26°C° 0 mm 6 mps 732 mmHg 20%
    09:00 +28°C° 0 mm 5 mps 732 mmHg 19%
    10:00 +30°C° 0 mm 4 mps 731 mmHg 17%
    11:00 +32°C° 0 mm 4 mps 731 mmHg 15%
    12:00 +33°C° 0 mm 3 mps 731 mmHg 14%
    13:00 +34°C° 0 mm 3 mps 730 mmHg 12%
    14:00 +35°C° 0 mm 3 mps 730 mmHg 11%
    15:00 +35°C° 0 mm 2 mps 730 mmHg 11%
    16:00 +36°C° 0 mm 2 mps 729 mmHg 10%
    17:00 +35°C° 0 mm 2 mps 730 mmHg 10%
    18:00 +34°C° 0 mm 2 mps 730 mmHg 11%
    19:00 +32°C° 0 mm 2 mps 730 mmHg 11%
    20:00 +31°C° 0 mm 2 mps 730 mmHg 13%
    21:00 +31°C° 0 mm 2 mps 731 mmHg 14%
    22:00 +30°C° 0 mm 2 mps 731 mmHg 15%
    23:00 +29°C° 0 mm 2 mps 731 mmHg 17%

    19 December, Tuesday

    Time Temperature Precipitation Wind Pressure Humidity
    00:00 +28°C° 0 mm 3 mps 731 mmHg 19%
    01:00 +28°C° 0 mm 4 mps 731 mmHg 21%
    02:00 +27°C° 0 mm 4 mps 731 mmHg 24%
    03:00 +26°C° 0 mm 3 mps 731 mmHg 26%
    04:00 +25°C° 0 mm 3 mps 731 mmHg 29%
    05:00 +27°C° 0 mm 3 mps 731 mmHg 26%
    06:00 +28°C° 0 mm 4 mps 731 mmHg 24%
    07:00 +29°C° 0 mm 4 mps 732 mmHg 21%
    08:00 +32°C° 0 mm 4 mps 731 mmHg 19%
    09:00 +34°C° 0 mm 4 mps 731 mmHg 17%
    10:00 +35°C° 0 mm 3 mps 731 mmHg 15%
    11:00 +36°C° 0 mm 3 mps 730 mmHg 13%
    12:00 +37°C° 0 mm 3 mps 730 mmHg 11%
    13:00 +39°C° 0 mm 3 mps 729 mmHg 10%
    14:00 +39°C° 0 mm 3 mps 729 mmHg 9%
    15:00 +39°C° 0 mm 3 mps 729 mmHg 8%
    16:00 +40°C° 0 mm 3 mps 728 mmHg 7%
    17:00 +39°C° 0 mm 3 mps 728 mmHg 8%
    18:00 +38°C° 0 mm 2 mps 728 mmHg 9%
    19:00 +36°C° 0 mm 2 mps 729 mmHg 10%
    20:00 +35°C° 0 mm 3 mps 729 mmHg 11%
    21:00 +34°C° 0 mm 5 mps 729 mmHg 13%
    22:00 +33°C° 0 mm 6 mps 729 mmHg 15%
    23:00 +32°C° 0 mm 5 mps 729 mmHg 16%
    Show more